Year,Month,Day,Hour,Minute,Value (Times are PST for windspeed in km/hr)
2019,09,15,00,00,7.10
2019,09,15,00,01,6.20
2019,09,15,00,02,3.90
2019,09,15,00,03,3.20
2019,09,15,00,04,2.40
2019,09,15,00,05,1.50
2019,09,15,00,06,0.40
2019,09,15,00,07,0.10
2019,09,15,00,08,0.00
2019,09,15,00,09,0.00
2019,09,15,00,10,0.00
2019,09,15,00,11,0.00
2019,09,15,00,12,0.00
2019,09,15,00,13,0.00
2019,09,15,00,14,2.20
2019,09,15,00,15,2.90
2019,09,15,00,16,2.10
2019,09,15,00,17,3.10
2019,09,15,00,18,3.90
2019,09,15,00,19,5.70
2019,09,15,00,20,5.50
2019,09,15,00,21,4.90
2019,09,15,00,22,5.60
2019,09,15,00,23,7.20
2019,09,15,00,24,5.70
2019,09,15,00,25,3.80
2019,09,15,00,26,4.70
2019,09,15,00,27,5.30
2019,09,15,00,28,4.90
2019,09,15,00,29,2.40
2019,09,15,00,30,1.10
2019,09,15,00,31,1.30
2019,09,15,00,32,2.30
2019,09,15,00,33,4.00
2019,09,15,00,34,4.90
2019,09,15,00,35,4.60
2019,09,15,00,36,5.70
2019,09,15,00,37,7.60
2019,09,15,00,38,7.10
2019,09,15,00,39,4.60
2019,09,15,00,40,2.20
2019,09,15,00,41,1.80
2019,09,15,00,42,3.70
2019,09,15,00,43,5.60
2019,09,15,00,44,4.90
2019,09,15,00,45,3.50
2019,09,15,00,46,1.60
2019,09,15,00,47,0.00
2019,09,15,00,48,0.00
2019,09,15,00,49,1.30
2019,09,15,00,50,1.50
2019,09,15,00,51,3.80
2019,09,15,00,52,4.20
2019,09,15,00,53,3.60
2019,09,15,00,54,0.40
2019,09,15,00,55,0.00
2019,09,15,00,56,0.00
2019,09,15,00,57,0.00
2019,09,15,00,58,0.00
2019,09,15,00,59,0.00
2019,09,15,01,00,0.00
2019,09,15,01,01,0.00
2019,09,15,01,02,0.00
2019,09,15,01,03,0.20
2019,09,15,01,04,1.20
2019,09,15,01,05,0.70
2019,09,15,01,06,0.00
2019,09,15,01,07,0.00
2019,09,15,01,08,0.00
2019,09,15,01,09,0.00
2019,09,15,01,10,0.00
2019,09,15,01,11,0.00
2019,09,15,01,12,1.80
2019,09,15,01,13,1.70
2019,09,15,01,14,1.40
2019,09,15,01,15,1.10
2019,09,15,01,16,2.40
2019,09,15,01,17,3.10
2019,09,15,01,18,2.50
2019,09,15,01,19,2.50
2019,09,15,01,20,1.70
2019,09,15,01,21,0.00
2019,09,15,01,22,0.00
2019,09,15,01,23,0.00
2019,09,15,01,24,0.70
2019,09,15,01,25,1.80
2019,09,15,01,26,1.80
2019,09,15,01,27,1.50
2019,09,15,01,28,0.30
2019,09,15,01,29,0.00
2019,09,15,01,30,0.00
2019,09,15,01,31,0.00
2019,09,15,01,32,0.90
2019,09,15,01,33,2.40
2019,09,15,01,34,2.60
2019,09,15,01,35,3.00
2019,09,15,01,36,2.70
2019,09,15,01,37,2.30
2019,09,15,01,38,2.10
2019,09,15,01,39,2.50
2019,09,15,01,40,3.50
2019,09,15,01,41,2.50
2019,09,15,01,42,2.10
2019,09,15,01,43,1.20
2019,09,15,01,44,0.60
2019,09,15,01,45,0.00
2019,09,15,01,46,0.10
2019,09,15,01,47,0.00
2019,09,15,01,48,1.40
2019,09,15,01,49,6.80
2019,09,15,01,50,8.00
2019,09,15,01,51,7.50
2019,09,15,01,52,5.80
2019,09,15,01,53,5.00
2019,09,15,01,54,4.40
2019,09,15,01,55,3.40
2019,09,15,01,56,9.40
2019,09,15,01,57,12.20
2019,09,15,01,58,8.70
2019,09,15,01,59,4.00
2019,09,15,02,00,0.50
2019,09,15,02,01,0.00
2019,09,15,02,02,0.00
2019,09,15,02,03,0.00
2019,09,15,02,04,0.00
2019,09,15,02,05,0.00
2019,09,15,02,06,0.20
2019,09,15,02,07,4.20
2019,09,15,02,08,4.20
2019,09,15,02,09,4.80
2019,09,15,02,10,4.50
2019,09,15,02,11,4.80
2019,09,15,02,12,5.20
2019,09,15,02,13,4.90
2019,09,15,02,14,5.90
2019,09,15,02,15,5.90
2019,09,15,02,16,6.10
2019,09,15,02,17,5.30
2019,09,15,02,18,4.50
2019,09,15,02,19,4.10
2019,09,15,02,20,4.00
2019,09,15,02,21,3.70
2019,09,15,02,22,3.00
2019,09,15,02,23,2.30
2019,09,15,02,24,2.10
2019,09,15,02,25,1.20
2019,09,15,02,26,0.20
2019,09,15,02,27,0.00
2019,09,15,02,28,0.00
2019,09,15,02,29,0.00
2019,09,15,02,30,0.00
2019,09,15,02,31,0.00
2019,09,15,02,32,0.20
2019,09,15,02,33,2.60
2019,09,15,02,34,9.10
2019,09,15,02,35,6.30
2019,09,15,02,36,4.60
2019,09,15,02,37,3.30
2019,09,15,02,38,2.60
2019,09,15,02,39,4.00
2019,09,15,02,40,2.90
2019,09,15,02,41,1.80
2019,09,15,02,42,0.90
2019,09,15,02,43,0.30
2019,09,15,02,44,0.00
2019,09,15,02,45,0.00
2019,09,15,02,46,0.00
2019,09,15,02,47,1.80
2019,09,15,02,48,4.40
2019,09,15,02,49,4.70
2019,09,15,02,50,5.60
2019,09,15,02,51,5.00
2019,09,15,02,52,5.50
2019,09,15,02,53,5.90
2019,09,15,02,54,6.30
2019,09,15,02,55,6.90
2019,09,15,02,56,6.30
2019,09,15,02,57,7.50
2019,09,15,02,58,6.10
2019,09,15,02,59,5.80
2019,09,15,03,00,6.80
2019,09,15,03,01,6.90
2019,09,15,03,02,6.30
2019,09,15,03,03,5.70
2019,09,15,03,04,4.80
2019,09,15,03,05,2.10
2019,09,15,03,06,1.80
2019,09,15,03,07,2.30
2019,09,15,03,08,1.50
2019,09,15,03,09,1.80
2019,09,15,03,10,2.30
2019,09,15,03,11,3.30
2019,09,15,03,12,3.10
2019,09,15,03,13,4.00
2019,09,15,03,14,4.20
2019,09,15,03,15,4.40
2019,09,15,03,16,4.50
2019,09,15,03,17,4.60
2019,09,15,03,18,4.50
2019,09,15,03,19,3.90
2019,09,15,03,20,3.50
2019,09,15,03,21,2.50
2019,09,15,03,22,2.30
2019,09,15,03,23,2.10
2019,09,15,03,24,1.60
2019,09,15,03,25,1.50
2019,09,15,03,26,1.90
2019,09,15,03,27,2.70
2019,09,15,03,28,1.80
2019,09,15,03,29,1.70
2019,09,15,03,30,1.70
2019,09,15,03,31,1.70
2019,09,15,03,32,0.50
2019,09,15,03,33,0.10
2019,09,15,03,34,0.10
2019,09,15,03,35,0.90
2019,09,15,03,36,0.60
2019,09,15,03,37,0.10
2019,09,15,03,38,0.00
2019,09,15,03,39,0.30
2019,09,15,03,40,2.40
2019,09,15,03,41,3.30
2019,09,15,03,42,4.20
2019,09,15,03,43,3.30
2019,09,15,03,44,3.40
2019,09,15,03,45,4.00
2019,09,15,03,46,2.80
2019,09,15,03,47,3.20
2019,09,15,03,48,2.70
2019,09,15,03,49,2.60
2019,09,15,03,50,2.50
2019,09,15,03,51,1.60
2019,09,15,03,52,1.90
2019,09,15,03,53,1.60
2019,09,15,03,54,1.50
2019,09,15,03,55,1.60
2019,09,15,03,56,1.10
2019,09,15,03,57,0.00
2019,09,15,03,58,0.00
2019,09,15,03,59,0.00
2019,09,15,04,00,0.00
2019,09,15,04,01,0.00
2019,09,15,04,02,0.00
2019,09,15,04,03,0.00
2019,09,15,04,04,0.00
2019,09,15,04,05,0.00
2019,09,15,04,06,0.00
2019,09,15,04,07,0.00
2019,09,15,04,08,0.00
2019,09,15,04,09,0.00
2019,09,15,04,10,0.00
2019,09,15,04,11,0.00
2019,09,15,04,12,0.00
2019,09,15,04,13,0.00
2019,09,15,04,14,0.00
2019,09,15,04,15,0.00
2019,09,15,04,16,0.00
2019,09,15,04,17,0.00
2019,09,15,04,18,0.00
2019,09,15,04,19,0.00
2019,09,15,04,20,0.00
2019,09,15,04,21,0.00
2019,09,15,04,22,0.00
2019,09,15,04,23,0.00
2019,09,15,04,24,0.00
2019,09,15,04,25,0.00
2019,09,15,04,26,0.00
2019,09,15,04,27,3.00
2019,09,15,04,28,3.80
2019,09,15,04,29,2.50
2019,09,15,04,30,2.80
2019,09,15,04,31,2.60
2019,09,15,04,32,2.30
2019,09,15,04,33,2.80
2019,09,15,04,34,1.80
2019,09,15,04,35,1.80
2019,09,15,04,36,1.60
2019,09,15,04,37,1.80
2019,09,15,04,38,0.50
2019,09,15,04,39,0.00
2019,09,15,04,40,0.90
2019,09,15,04,41,1.70
2019,09,15,04,42,1.50
2019,09,15,04,43,0.00
2019,09,15,04,44,0.00
2019,09,15,04,45,0.00
2019,09,15,04,46,0.00
2019,09,15,04,47,0.00
2019,09,15,04,48,0.00
2019,09,15,04,49,0.00
2019,09,15,04,50,0.00
2019,09,15,04,51,0.00
2019,09,15,04,52,0.00
2019,09,15,04,53,0.00
2019,09,15,04,54,0.00
2019,09,15,04,55,0.00
2019,09,15,04,56,0.00
2019,09,15,04,57,0.00
2019,09,15,04,58,0.00
2019,09,15,04,59,0.00
2019,09,15,05,00,0.00
2019,09,15,05,01,0.00
2019,09,15,05,02,0.00
2019,09,15,05,03,0.00
2019,09,15,05,04,0.00
2019,09,15,05,05,0.00
2019,09,15,05,06,0.00
2019,09,15,05,07,0.00
2019,09,15,05,08,0.00
2019,09,15,05,09,0.00
2019,09,15,05,10,0.00
2019,09,15,05,11,0.00
2019,09,15,05,12,0.00
2019,09,15,05,13,0.00
2019,09,15,05,14,0.00
2019,09,15,05,15,0.00
2019,09,15,05,16,0.00
2019,09,15,05,17,0.00
2019,09,15,05,18,0.00
2019,09,15,05,19,0.00
2019,09,15,05,20,0.00
2019,09,15,05,21,0.00
2019,09,15,05,22,0.00
2019,09,15,05,23,0.00
2019,09,15,05,24,0.00
2019,09,15,05,25,0.00
2019,09,15,05,26,0.00
2019,09,15,05,27,0.00
2019,09,15,05,28,0.00
2019,09,15,05,29,0.00
2019,09,15,05,30,0.00
2019,09,15,05,31,0.00
2019,09,15,05,32,0.00
2019,09,15,05,33,0.00
2019,09,15,05,34,0.00
2019,09,15,05,35,0.00
2019,09,15,05,36,0.00
2019,09,15,05,37,0.00
2019,09,15,05,38,0.00
2019,09,15,05,39,0.00
2019,09,15,05,40,0.00
2019,09,15,05,41,0.00
2019,09,15,05,42,0.00
2019,09,15,05,43,0.00
2019,09,15,05,44,0.00
2019,09,15,05,45,1.90
2019,09,15,05,46,3.80
2019,09,15,05,47,4.30
2019,09,15,05,48,3.00
2019,09,15,05,49,1.10
2019,09,15,05,50,3.80
2019,09,15,05,51,3.20
2019,09,15,05,52,4.30
2019,09,15,05,53,3.00
2019,09,15,05,54,3.60
2019,09,15,05,55,2.40
2019,09,15,05,56,1.90
2019,09,15,05,57,2.60
2019,09,15,05,58,3.50
2019,09,15,05,59,2.70
2019,09,15,06,00,4.30
2019,09,15,06,01,4.10
2019,09,15,06,02,2.70
2019,09,15,06,03,2.80
2019,09,15,06,04,1.90
2019,09,15,06,05,2.70
2019,09,15,06,06,4.20
2019,09,15,06,07,2.80
2019,09,15,06,08,1.90
2019,09,15,06,09,2.40
2019,09,15,06,10,2.80
2019,09,15,06,11,1.90
2019,09,15,06,12,1.70
2019,09,15,06,13,2.00
2019,09,15,06,14,1.90
2019,09,15,06,15,2.30
2019,09,15,06,16,2.20
2019,09,15,06,17,1.10
2019,09,15,06,18,1.30
2019,09,15,06,19,0.30
2019,09,15,06,20,0.40
2019,09,15,06,21,0.00
2019,09,15,06,22,0.10
2019,09,15,06,23,2.80
2019,09,15,06,24,3.80
2019,09,15,06,25,2.10
2019,09,15,06,26,2.20
2019,09,15,06,27,2.60
2019,09,15,06,28,2.90
2019,09,15,06,29,3.50
2019,09,15,06,30,3.40
2019,09,15,06,31,3.20
2019,09,15,06,32,1.90
2019,09,15,06,33,0.30
2019,09,15,06,34,0.10
2019,09,15,06,35,1.10
2019,09,15,06,36,2.30
2019,09,15,06,37,5.00
2019,09,15,06,38,4.80
2019,09,15,06,39,5.20
2019,09,15,06,40,4.00
2019,09,15,06,41,3.30
2019,09,15,06,42,3.40
2019,09,15,06,43,2.70
2019,09,15,06,44,1.70
2019,09,15,06,45,0.80
2019,09,15,06,46,1.30
2019,09,15,06,47,2.90
2019,09,15,06,48,2.90
2019,09,15,06,49,1.50
2019,09,15,06,50,0.70
2019,09,15,06,51,0.40
2019,09,15,06,52,3.10
2019,09,15,06,53,2.80
2019,09,15,06,54,3.70
2019,09,15,06,55,3.80
2019,09,15,06,56,3.70
2019,09,15,06,57,3.60
2019,09,15,06,58,3.70
2019,09,15,06,59,4.90
2019,09,15,07,00,4.90
2019,09,15,07,01,3.20
2019,09,15,07,02,3.60
2019,09,15,07,03,3.60
2019,09,15,07,04,3.20
2019,09,15,07,05,4.40
2019,09,15,07,06,3.50
2019,09,15,07,07,4.10
2019,09,15,07,08,3.90
2019,09,15,07,09,3.90
2019,09,15,07,10,4.00
2019,09,15,07,11,2.50
2019,09,15,07,12,3.20
2019,09,15,07,13,2.30
2019,09,15,07,14,1.30
2019,09,15,07,15,1.50
2019,09,15,07,16,2.70
2019,09,15,07,17,3.00
2019,09,15,07,18,3.30
2019,09,15,07,19,2.80
2019,09,15,07,20,3.60
2019,09,15,07,21,3.30
2019,09,15,07,22,3.30
2019,09,15,07,23,2.70
2019,09,15,07,24,5.00
2019,09,15,07,25,4.70
2019,09,15,07,26,5.60
2019,09,15,07,27,2.10
2019,09,15,07,28,3.30
2019,09,15,07,29,2.90
2019,09,15,07,30,4.40
2019,09,15,07,31,3.70
2019,09,15,07,32,4.00
2019,09,15,07,33,3.40
2019,09,15,07,34,3.90
2019,09,15,07,35,3.70
2019,09,15,07,36,3.40
2019,09,15,07,37,4.50
2019,09,15,07,38,5.60
2019,09,15,07,39,3.20
2019,09,15,07,40,2.00
2019,09,15,07,41,3.70
2019,09,15,07,42,2.50
2019,09,15,07,43,1.60
2019,09,15,07,44,1.10
2019,09,15,07,45,2.50
2019,09,15,07,46,4.00
2019,09,15,07,47,2.10
2019,09,15,07,48,2.50
2019,09,15,07,49,2.20
2019,09,15,07,50,3.50
2019,09,15,07,51,3.00
2019,09,15,07,52,3.00
2019,09,15,07,53,1.10
2019,09,15,07,54,0.10
2019,09,15,07,55,0.40
2019,09,15,07,56,1.30
2019,09,15,07,57,2.90
2019,09,15,07,58,3.50
2019,09,15,07,59,1.40
2019,09,15,08,00,0.60
2019,09,15,08,01,1.80
2019,09,15,08,02,2.10
2019,09,15,08,03,1.50
2019,09,15,08,04,0.80
2019,09,15,08,05,1.10
2019,09,15,08,06,2.30
2019,09,15,08,07,2.30
2019,09,15,08,08,1.80
2019,09,15,08,09,2.50
2019,09,15,08,10,2.40
2019,09,15,08,11,2.10
2019,09,15,08,12,2.50
2019,09,15,08,13,1.50
2019,09,15,08,14,2.20
2019,09,15,08,15,2.50
2019,09,15,08,16,3.70
2019,09,15,08,17,4.20
2019,09,15,08,18,4.10
2019,09,15,08,19,3.50
2019,09,15,08,20,2.60
2019,09,15,08,21,3.40
2019,09,15,08,22,3.60
2019,09,15,08,23,3.00
2019,09,15,08,24,3.00
2019,09,15,08,25,3.10
2019,09,15,08,26,3.30
2019,09,15,08,27,3.30
2019,09,15,08,28,4.10
2019,09,15,08,29,3.50
2019,09,15,08,30,4.30
2019,09,15,08,31,3.50
2019,09,15,08,32,4.30
2019,09,15,08,33,3.90
2019,09,15,08,34,4.80
2019,09,15,08,35,5.20
2019,09,15,08,36,5.50
2019,09,15,08,37,4.30
2019,09,15,08,38,3.50
2019,09,15,08,39,3.60
2019,09,15,08,40,2.20
2019,09,15,08,41,3.20
2019,09,15,08,42,4.20
2019,09,15,08,43,6.90
2019,09,15,08,44,6.00
2019,09,15,08,45,5.60
2019,09,15,08,46,4.90
2019,09,15,08,47,2.90
2019,09,15,08,48,2.70
2019,09,15,08,49,1.80
2019,09,15,08,50,2.70
2019,09,15,08,51,1.90
2019,09,15,08,52,1.10
2019,09,15,08,53,2.10
2019,09,15,08,54,2.30
2019,09,15,08,55,3.20
2019,09,15,08,56,3.80
2019,09,15,08,57,3.30
2019,09,15,08,58,5.10
2019,09,15,08,59,3.50
2019,09,15,09,00,3.30
2019,09,15,09,01,3.40
2019,09,15,09,02,3.80
2019,09,15,09,03,2.70
2019,09,15,09,04,1.70
2019,09,15,09,05,0.30
2019,09,15,09,06,0.00
2019,09,15,09,07,0.60
2019,09,15,09,08,1.20
2019,09,15,09,09,0.80
2019,09,15,09,10,0.90
2019,09,15,09,11,0.20
2019,09,15,09,12,3.60
2019,09,15,09,13,2.70
2019,09,15,09,14,1.40
2019,09,15,09,15,4.30
2019,09,15,09,16,3.50
2019,09,15,09,17,4.00
2019,09,15,09,18,2.50
2019,09,15,09,19,2.20
2019,09,15,09,20,2.10
2019,09,15,09,21,3.60
2019,09,15,09,22,3.90
2019,09,15,09,23,3.80
2019,09,15,09,24,4.00
2019,09,15,09,25,3.40
2019,09,15,09,26,3.70
2019,09,15,09,27,5.90
2019,09,15,09,28,5.40
2019,09,15,09,29,5.60
2019,09,15,09,30,4.60
2019,09,15,09,31,3.40
2019,09,15,09,32,4.10
2019,09,15,09,33,3.30
2019,09,15,09,34,2.50
2019,09,15,09,35,2.80
2019,09,15,09,36,3.80
2019,09,15,09,37,3.80
2019,09,15,09,38,2.50
2019,09,15,09,39,2.30
2019,09,15,09,40,2.90
2019,09,15,09,41,3.40
2019,09,15,09,42,3.20
2019,09,15,09,43,3.70
2019,09,15,09,44,3.10
2019,09,15,09,45,2.60
2019,09,15,09,46,2.70
2019,09,15,09,47,1.20
2019,09,15,09,48,2.10
2019,09,15,09,49,0.00
2019,09,15,09,50,1.20
2019,09,15,09,51,2.00
2019,09,15,09,52,1.90
2019,09,15,09,53,1.10
2019,09,15,09,54,2.60
2019,09,15,09,55,2.20
2019,09,15,09,56,1.80
2019,09,15,09,57,2.40
2019,09,15,09,58,2.10
2019,09,15,09,59,2.70
2019,09,15,10,00,2.00
2019,09,15,10,01,2.60
2019,09,15,10,02,2.20
2019,09,15,10,03,1.60
2019,09,15,10,04,0.40
2019,09,15,10,05,3.20
2019,09,15,10,06,2.80
2019,09,15,10,07,1.70
2019,09,15,10,08,0.00
2019,09,15,10,09,0.90
2019,09,15,10,10,1.20
2019,09,15,10,11,1.30
2019,09,15,10,12,1.50
2019,09,15,10,13,1.10
2019,09,15,10,14,1.00
2019,09,15,10,15,2.60
2019,09,15,10,16,2.70
2019,09,15,10,17,2.10
2019,09,15,10,18,1.30
2019,09,15,10,19,1.80
2019,09,15,10,20,2.50
2019,09,15,10,21,1.80
2019,09,15,10,22,0.30
2019,09,15,10,23,0.00
2019,09,15,10,24,0.00
2019,09,15,10,25,0.00
2019,09,15,10,26,0.00
2019,09,15,10,27,0.00
2019,09,15,10,28,0.00
2019,09,15,10,29,0.00
2019,09,15,10,30,0.00
2019,09,15,10,31,1.90
2019,09,15,10,32,2.20
2019,09,15,10,33,2.60
2019,09,15,10,34,2.20
2019,09,15,10,35,2.80
2019,09,15,10,36,3.30
2019,09,15,10,37,3.40
2019,09,15,10,38,3.60
2019,09,15,10,39,3.00
2019,09,15,10,40,2.70
2019,09,15,10,41,2.10
2019,09,15,10,42,0.80
2019,09,15,10,43,0.00
2019,09,15,10,44,0.00
2019,09,15,10,45,0.00
2019,09,15,10,46,0.00
2019,09,15,10,47,0.00
2019,09,15,10,48,0.00
2019,09,15,10,49,0.00
2019,09,15,10,50,0.00
2019,09,15,10,51,0.00
2019,09,15,10,52,0.00
2019,09,15,10,53,0.80
2019,09,15,10,54,1.90
2019,09,15,10,55,2.70
2019,09,15,10,56,2.90
2019,09,15,10,57,4.20
2019,09,15,10,58,4.40
2019,09,15,10,59,4.40
2019,09,15,11,00,4.30
2019,09,15,11,01,3.70
2019,09,15,11,02,3.80
2019,09,15,11,03,4.70
2019,09,15,11,04,4.70
2019,09,15,11,05,4.90
2019,09,15,11,06,6.80
2019,09,15,11,07,9.50
2019,09,15,11,08,7.70
2019,09,15,11,09,6.60
2019,09,15,11,10,5.40
2019,09,15,11,11,5.10
2019,09,15,11,12,5.40
2019,09,15,11,13,6.20
2019,09,15,11,14,5.90
2019,09,15,11,15,7.20
2019,09,15,11,16,8.10
2019,09,15,11,17,8.90
2019,09,15,11,18,11.10
2019,09,15,11,19,11.20
2019,09,15,11,20,9.40
2019,09,15,11,21,7.80
2019,09,15,11,22,10.30
2019,09,15,11,23,10.70
2019,09,15,11,24,9.10
2019,09,15,11,25,6.60
2019,09,15,11,26,6.60
2019,09,15,11,27,7.00
2019,09,15,11,28,6.30
2019,09,15,11,29,5.80
2019,09,15,11,30,5.60
2019,09,15,11,31,4.70
2019,09,15,11,32,3.20
2019,09,15,11,33,1.50
2019,09,15,11,34,0.60
2019,09,15,11,35,0.00
2019,09,15,11,36,0.00
2019,09,15,11,37,0.00
2019,09,15,11,38,0.00
2019,09,15,11,39,0.00
2019,09,15,11,40,0.00
2019,09,15,11,41,0.00
2019,09,15,11,42,0.00
2019,09,15,11,43,0.00
2019,09,15,11,44,0.00
2019,09,15,11,45,0.00
2019,09,15,11,46,0.00
2019,09,15,11,47,0.00
2019,09,15,11,48,0.00
2019,09,15,11,49,0.00
2019,09,15,11,50,1.40
2019,09,15,11,51,0.30
2019,09,15,11,52,1.90
2019,09,15,11,53,1.40
2019,09,15,11,54,1.90
2019,09,15,11,55,4.50
2019,09,15,11,56,2.50
2019,09,15,11,57,2.30
2019,09,15,11,58,1.80
2019,09,15,11,59,0.90
2019,09,15,12,00,0.80
2019,09,15,12,01,0.20
2019,09,15,12,02,2.20
2019,09,15,12,03,2.30
2019,09,15,12,04,2.50
2019,09,15,12,05,1.80
2019,09,15,12,06,2.00
2019,09,15,12,07,2.90
2019,09,15,12,08,3.30
2019,09,15,12,09,4.10
2019,09,15,12,10,4.30
2019,09,15,12,11,4.50
2019,09,15,12,12,5.40
2019,09,15,12,13,4.90
2019,09,15,12,14,5.00
2019,09,15,12,15,3.90
2019,09,15,12,16,4.70
2019,09,15,12,17,5.60
2019,09,15,12,18,4.80
2019,09,15,12,19,5.10
2019,09,15,12,20,4.90
2019,09,15,12,21,5.40
2019,09,15,12,22,5.90
2019,09,15,12,23,5.10
2019,09,15,12,24,6.00
2019,09,15,12,25,6.60
2019,09,15,12,26,7.00
2019,09,15,12,27,8.90
2019,09,15,12,28,10.70
2019,09,15,12,29,10.60
2019,09,15,12,30,9.50
2019,09,15,12,31,9.30
2019,09,15,12,32,8.00
2019,09,15,12,33,5.90
2019,09,15,12,34,5.50
2019,09,15,12,35,5.30
2019,09,15,12,36,5.50
2019,09,15,12,37,6.30
2019,09,15,12,38,8.00
2019,09,15,12,39,8.50
2019,09,15,12,40,7.50
2019,09,15,12,41,8.20
2019,09,15,12,42,9.20
2019,09,15,12,43,10.00
2019,09,15,12,44,9.80
2019,09,15,12,45,10.90
2019,09,15,12,46,11.50
2019,09,15,12,47,11.70
2019,09,15,12,48,9.90
2019,09,15,12,49,9.70
2019,09,15,12,50,8.20
2019,09,15,12,51,6.40
2019,09,15,12,52,5.80
2019,09,15,12,53,5.80
2019,09,15,12,54,5.90
2019,09,15,12,55,7.50
2019,09,15,12,56,6.80
2019,09,15,12,57,7.30
2019,09,15,12,58,8.30
2019,09,15,12,59,7.30
2019,09,15,13,00,5.80
2019,09,15,13,01,4.80
2019,09,15,13,02,4.50
2019,09,15,13,03,4.40
2019,09,15,13,04,3.60
2019,09,15,13,05,4.20
2019,09,15,13,06,3.20
2019,09,15,13,07,4.70
2019,09,15,13,08,4.90
2019,09,15,13,09,4.90
2019,09,15,13,10,4.90
2019,09,15,13,11,5.50
2019,09,15,13,12,4.30
2019,09,15,13,13,5.90
2019,09,15,13,14,6.30
2019,09,15,13,15,9.90
2019,09,15,13,16,9.90
2019,09,15,13,17,8.90
2019,09,15,13,18,7.10
2019,09,15,13,19,8.30
2019,09,15,13,20,10.10
2019,09,15,13,21,7.90
2019,09,15,13,22,8.00
2019,09,15,13,23,7.70
2019,09,15,13,24,7.70
2019,09,15,13,25,7.30
2019,09,15,13,26,9.20
2019,09,15,13,27,9.90
2019,09,15,13,28,11.00
2019,09,15,13,29,11.10
2019,09,15,13,30,10.70
2019,09,15,13,31,10.90
2019,09,15,13,32,11.00
2019,09,15,13,33,12.60
2019,09,15,13,34,12.50
2019,09,15,13,35,11.10
2019,09,15,13,36,11.40
2019,09,15,13,37,10.20
2019,09,15,13,38,10.00
2019,09,15,13,39,10.20
2019,09,15,13,40,10.80
2019,09,15,13,41,8.80
2019,09,15,13,42,7.90
2019,09,15,13,43,8.50
2019,09,15,13,44,10.90
2019,09,15,13,45,11.80
2019,09,15,13,46,11.40
2019,09,15,13,47,12.30
2019,09,15,13,48,13.00
2019,09,15,13,49,13.80
2019,09,15,13,50,13.80
2019,09,15,13,51,13.30
2019,09,15,13,52,11.50
2019,09,15,13,53,9.70
2019,09,15,13,54,10.70
2019,09,15,13,55,11.30
2019,09,15,13,56,9.30
2019,09,15,13,57,8.90
2019,09,15,13,58,7.50
2019,09,15,13,59,7.50
2019,09,15,14,00,7.70
2019,09,15,14,01,6.10
2019,09,15,14,02,6.00
2019,09,15,14,03,6.20
2019,09,15,14,04,8.80
2019,09,15,14,05,7.70
2019,09,15,14,06,10.70
2019,09,15,14,07,9.80
2019,09,15,14,08,11.00
2019,09,15,14,09,8.40
2019,09,15,14,10,7.00
2019,09,15,14,11,6.00
2019,09,15,14,12,7.20
2019,09,15,14,13,6.80
2019,09,15,14,14,8.10
2019,09,15,14,15,6.30
2019,09,15,14,16,6.40
2019,09,15,14,17,6.40
2019,09,15,14,18,6.50
2019,09,15,14,19,6.20
2019,09,15,14,20,6.80
2019,09,15,14,21,7.20
2019,09,15,14,22,7.70
2019,09,15,14,23,9.70
2019,09,15,14,24,6.70
2019,09,15,14,25,7.00
2019,09,15,14,26,10.00
2019,09,15,14,27,11.50
2019,09,15,14,28,9.60
2019,09,15,14,29,8.10
2019,09,15,14,30,8.60
2019,09,15,14,31,7.50
2019,09,15,14,32,9.30
2019,09,15,14,33,6.70
2019,09,15,14,34,7.90
2019,09,15,14,35,7.80
2019,09,15,14,36,9.30
2019,09,15,14,37,8.90
2019,09,15,14,38,12.40
2019,09,15,14,39,8.80
2019,09,15,14,40,7.00
2019,09,15,14,41,6.50
2019,09,15,14,42,7.10
2019,09,15,14,43,6.90
2019,09,15,14,44,6.70
2019,09,15,14,45,8.20
2019,09,15,14,46,8.20
2019,09,15,14,47,8.00
2019,09,15,14,48,7.80
2019,09,15,14,49,8.00
2019,09,15,14,50,7.40
2019,09,15,14,51,7.70
2019,09,15,14,52,6.10
2019,09,15,14,53,6.60
2019,09,15,14,54,7.70
2019,09,15,14,55,5.50
2019,09,15,14,56,3.70
2019,09,15,14,57,3.00
2019,09,15,14,58,2.10
2019,09,15,14,59,1.20
2019,09,15,15,00,1.40
2019,09,15,15,01,0.20
2019,09,15,15,02,2.40
2019,09,15,15,03,1.80
2019,09,15,15,04,3.80
2019,09,15,15,05,5.30
2019,09,15,15,06,4.20
2019,09,15,15,07,5.50
2019,09,15,15,08,4.20
2019,09,15,15,09,3.90
2019,09,15,15,10,6.70
2019,09,15,15,11,7.20
2019,09,15,15,12,7.30
2019,09,15,15,13,8.70
2019,09,15,15,14,7.50
2019,09,15,15,15,8.20
2019,09,15,15,16,9.30
2019,09,15,15,17,10.40
2019,09,15,15,18,6.50
2019,09,15,15,19,9.20
2019,09,15,15,20,9.20
2019,09,15,15,21,8.90
2019,09,15,15,22,10.80
2019,09,15,15,23,10.60
2019,09,15,15,24,8.30
2019,09,15,15,25,7.90
2019,09,15,15,26,7.30
2019,09,15,15,27,6.60
2019,09,15,15,28,8.90
2019,09,15,15,29,5.70
2019,09,15,15,30,6.60
2019,09,15,15,31,10.50
2019,09,15,15,32,9.30
2019,09,15,15,33,11.40
2019,09,15,15,34,8.20
2019,09,15,15,35,7.80
2019,09,15,15,36,7.60
2019,09,15,15,37,5.50
2019,09,15,15,38,5.80
2019,09,15,15,39,4.50
2019,09,15,15,40,6.90
2019,09,15,15,41,10.90
2019,09,15,15,42,7.40
2019,09,15,15,43,10.80
2019,09,15,15,44,8.50
2019,09,15,15,45,10.60
2019,09,15,15,46,9.10
2019,09,15,15,47,7.20
2019,09,15,15,48,10.30
2019,09,15,15,49,7.50
2019,09,15,15,50,10.10
2019,09,15,15,51,8.20
2019,09,15,15,52,7.50
2019,09,15,15,53,7.70
2019,09,15,15,54,6.20
2019,09,15,15,55,5.60
2019,09,15,15,56,5.10
2019,09,15,15,57,4.70
2019,09,15,15,58,5.50
2019,09,15,15,59,4.60
2019,09,15,16,00,5.70
2019,09,15,16,01,6.00
2019,09,15,16,02,7.20
2019,09,15,16,03,8.20
2019,09,15,16,04,7.70
2019,09,15,16,05,6.90
2019,09,15,16,06,6.10
2019,09,15,16,07,6.70
2019,09,15,16,08,6.40
2019,09,15,16,09,7.50
2019,09,15,16,10,5.20
2019,09,15,16,11,6.30
2019,09,15,16,12,4.60
2019,09,15,16,13,5.40
2019,09,15,16,14,8.20
2019,09,15,16,15,8.20
2019,09,15,16,16,7.40
2019,09,15,16,17,5.50
2019,09,15,16,18,8.20
2019,09,15,16,19,8.70
2019,09,15,16,20,8.70
2019,09,15,16,21,10.60
2019,09,15,16,22,7.90
2019,09,15,16,23,6.30
2019,09,15,16,24,6.20
2019,09,15,16,25,4.90
2019,09,15,16,26,4.90
2019,09,15,16,27,5.30
2019,09,15,16,28,6.70
2019,09,15,16,29,5.20
2019,09,15,16,30,5.00
2019,09,15,16,31,6.70
2019,09,15,16,32,5.00
2019,09,15,16,33,6.40
2019,09,15,16,34,6.60
2019,09,15,16,35,4.80
2019,09,15,16,36,4.40
2019,09,15,16,37,4.50
2019,09,15,16,38,6.90
2019,09,15,16,39,6.40
2019,09,15,16,40,8.80
2019,09,15,16,41,7.70
2019,09,15,16,42,6.70
2019,09,15,16,43,4.70
2019,09,15,16,44,5.80
2019,09,15,16,45,5.80
2019,09,15,16,46,7.30
2019,09,15,16,47,6.00
2019,09,15,16,48,6.20
2019,09,15,16,49,6.70
2019,09,15,16,50,7.90
2019,09,15,16,51,6.30
2019,09,15,16,52,6.40
2019,09,15,16,53,4.90
2019,09,15,16,54,5.00
2019,09,15,16,55,7.20
2019,09,15,16,56,5.00
2019,09,15,16,57,6.10
2019,09,15,16,58,6.50
2019,09,15,16,59,6.20
2019,09,15,17,00,5.90
2019,09,15,17,01,6.10
2019,09,15,17,02,6.60
2019,09,15,17,03,6.60
2019,09,15,17,04,6.90
2019,09,15,17,05,5.60
2019,09,15,17,06,6.30
2019,09,15,17,07,5.50
2019,09,15,17,08,4.30
2019,09,15,17,09,5.90
2019,09,15,17,10,2.20
2019,09,15,17,11,1.40
2019,09,15,17,12,1.80
2019,09,15,17,13,3.10
2019,09,15,17,14,4.00
2019,09,15,17,15,3.70
2019,09,15,17,16,2.40
2019,09,15,17,17,2.80
2019,09,15,17,18,3.50
2019,09,15,17,19,3.90
2019,09,15,17,20,4.30
2019,09,15,17,21,5.30
2019,09,15,17,22,4.40
2019,09,15,17,23,3.50
2019,09,15,17,24,2.00
2019,09,15,17,25,3.10
2019,09,15,17,26,3.40
2019,09,15,17,27,2.90
2019,09,15,17,28,4.00
2019,09,15,17,29,4.20
2019,09,15,17,30,3.40
2019,09,15,17,31,3.30
2019,09,15,17,32,3.00
2019,09,15,17,33,3.20
2019,09,15,17,34,4.00
2019,09,15,17,35,4.60
2019,09,15,17,36,6.30
2019,09,15,17,37,6.30
2019,09,15,17,38,4.40
2019,09,15,17,39,5.40
2019,09,15,17,40,6.70
2019,09,15,17,41,7.40
2019,09,15,17,42,5.60
2019,09,15,17,43,5.40
2019,09,15,17,44,6.40
2019,09,15,17,45,4.60
2019,09,15,17,46,2.10
2019,09,15,17,47,1.80
2019,09,15,17,48,2.30
2019,09,15,17,49,1.90
2019,09,15,17,50,1.70
2019,09,15,17,51,2.50
2019,09,15,17,52,3.00
2019,09,15,17,53,3.30
2019,09,15,17,54,2.60
2019,09,15,17,55,4.70
2019,09,15,17,56,2.80
2019,09,15,17,57,3.70
2019,09,15,17,58,5.10
2019,09,15,17,59,7.80
2019,09,15,18,00,5.30
2019,09,15,18,01,4.70
2019,09,15,18,02,4.20
2019,09,15,18,03,4.40
2019,09,15,18,04,4.60